Location: Dötzum
(52.0808°N, 9.8063°E)
Time: 05:22:31
(UTC+00:00)

Lacrosse 5 rocket - Pass Details

Date: 27 May 2022
Orbit: 457 x 629 km, 57.0° (Epoch: 24 June)

Event Time Altitude Azimuth Distance (km) Brightness Sun altitude
Exits shadow 01:15:10 18° 186° (S) 1,303 2.7 -12.3°
Maximum altitude 01:17:21 31° 135° (SE) 933 2.3 -12.2°
Drops below altitude 10° 01:20:58 10° 73° (ENE) 1,809 4.7 -11.9°
Sets 01:23:26 0° 63° (ENE) 2,741 5.9 -11.7°
